SCP
0 0 0 0 0 0 0 0 0 0 0 0 0 0 0 0 0 0 0 0 0 0 0 0 0 0 0 0 0 0 0 0 0 0 0 0 0 0 0 0 0 0 0 0
0 0 0 0 0 0 0 0 0 0 0 0 0 0 0 0 0 0 0 0 0 0 0 0 0 0 0 0 0 0 0 0 0 0 0 0 0 0 0 0 0 0 0 0
0 0 0 0 0 0 0 0 0 0 0 0 0 -0 -0 0 0 0 0 0 0 0 0 0 0 0 0 0 0 0 0 0 0 0 0 0 0 0 0 0 0 0 0 0
0 0 0 0 0 0 0 0 0 0 0 0 0 -0 -0 0 0 0 0 0 0 0 0 0 0 0 0 0 0 0 0 0 0 0 0 0 0 0 0 0 0 0 0 0
0 0 0 0 0 0 0 0 0 0 0 0 0 0 -0 0 0 0 0 0 0 0 0 0 0 0 0 0 0 0 0 0 0 0 0 0 0 0 0 0 0 0 0 0
0 0 0 0 0 0 0 0 0 0 0 0 0 0 0 0 0 0 0 0 0 0 0 0 0 0 0 0 0 0 0 0 0 0 0 0 0 0 0 0 0 0 0 0
0 0 0 0 0 0 0 0 0 0 0 0 0 0 0 0 0 0 0 0 0 0 0 0 0 0 0 0 0 0 0 0 0 0 0 0 0 0 0 0 0 0 0 0
0 0 0 0 0 0 0 0 0 0 0 0 0 0 0 0 0 0 0 0 0 0 0 0 0 0 0 0 0 0 0 0 0 0 0 0 0 0 0 0 0 0 0 0
0 0 0 0 0 0 0 0 0 0 0 0 0 0 0 0 0 0 0 0 0 0 0 0 0 0 0 0 0 0 0 0 0 0 0 0 0 0 0 0 0 0 0 0
0 0 0 0 0 0 0 0 0 0 0 0 0 0 0 0 0 0 0 0 0 0 0 0 0 0 0 0 0 0 0 0 0 0 0 0 0 0 0 0 0 0 0 0
0 0 0 0 0 0 0 0 0 0 0 0 0 0 0 0 0 0 0 0 0 0 0 0 0 0 0 0 0 0 0 0 0 0 0 0 0 0 0 0 0 0 0 0
0 0 0 0 0 0 0 0 0 0 0 0 0 0 0 0 0 0 0 0 0 0 0 0 0 0 0 0 0 0 0 0 0 0 0 0 0 0 0 0 0 0 0 0
0 0 0 0 0 0 0 0 0 0 0 0 0 0 0 0 0 -0 -0 0 0 0 0 0 0 0 0 0 0 0 0 0 0 0 0 0 0 0 0 0 0 0 0 0
0 0 0 0 0 0 0 0 0 0 0 0 0 0 0 0 0 0 0 0 0 0 0 0 0 0 0 0 0 0 0 0 0 0 0 0 0 0 0 0 0 0 0 0
0 0 0 0 0 0 0 0 0 0 0 0 0 0 0 0 0 0 0 0 0 0 0 0 0 0 0 0 0 0 0 0 0 0 0 0 0 0 0 0 0 0 0 0
0 0 0 0 0 0 0 0 0 0 0 0 0 0 0 0 0 0 0 0 0 0 0 0 0 0 0 0 0 0 0 0 0 0 0 0 0 0 0 0 0 0 0 0
0 0 0 0 0 0 0 0 0 0 0 0 0 0 0 0 0 0 0 0 0 0 0 0 0 0 0 0 0 0 0 0 0 0 0 0 0 0 0 0 0 0 0 0
0 0 0 0 0 0 0 0 0 0 0 0 0 0 0 0 0 0 0 0 0 0 0 0 0 0 0 0 0 0 0 0 0 0 0 0 0 0 0 0 0 0 0 0
0 0 0 0 -0 0 0 0 0 0 0 0 0 0 0 0 0 0 0 0 0 0 0 0 0 0 0 0 0 0 0 0 0 0 0 0 0 0 0 0 0 0 0 0
0 0 0 0 0 -0 -0 0 0 0 0 0 0 0 0 0 0 0 0 0 0 0 0 0 0 0 0 0 0 0 0 0 0 0 0 0 0 0 0 0 0 0 0 0
0 0 0 0 0 0 0 0 0 0 0 0 0 0 0 0 0 0 0 0 0 0 0 0 0 0 0 0 0 0 0 0 0 0 0 0 0 0 0 0 0 0 0 0
0 0 0 0 0 0 0 0 0 0 0 0 0 0 0 0 0 0 -0 0 0 -0 -0 -0 0 0 0 0 0 0 0 0 0 0 0 0 0 0 0 0 0 0 0 0
0 0 0 0 0 0 0 0 0 0 0 0 0 0 0 0 0 0 0 0 0 -0 -0 -0 -0 0 0 0 0 0 0 0 0 0 0 0 0 0 0 0 0 0 0 0
0 0 0 0 0 0 0 0 0 0 0 0 0 0 0 0 0 0 0 0 0 -0 -0 -0 -0 0 0 0 0 0 0 0 0 0 0 0 0 0 0 0 0 0 0 0
0 0 0 0 0 -0 -0 0 0 0 0 0 0 0 0 0 0 0 0 0 0 0 -0 -0 -0 0 0 0 0 0 0 0 0 0 0 0 0 0 0 0 0 0 0 0
0 0 0 0 0 -0 -0 0 0 0 0 0 0 0 0 0 0 0 0 0 0 0 0 0 0 0 0 0 0 0 0 0 0 0 0 0 0 0 0 0 0 0 0 0
Wind_Speed
2 3 3 5 6 3 3 3 4 4 2 2 6 10 10 6 4 5 5 5 5 6 4 2 1 0 1 1 1 1 1 1 1 1 0 0 0 0 1 1 1 1 1 1
3 3 5 2 3 3 3 3 4 4 2 2 5 10 9 6 6 6 7 7 6 5 3 2 1 0 1 1 1 1 1 1 1 1 1 0 0 0 0 1 1 1 1 1
5 3 1 3 3 4 4 6 5 3 3 2 4 9 6 4 4 5 5 5 5 5 5 3 1 1 1 1 1 1 1 1 1 1 1 1 1 1 1 1 1 1 1 1
3 2 1 2 3 4 5 4 4 3 1 4 0 6 8 3 4 5 5 4 4 4 4 3 2 1 1 1 0 1 0 1 1 1 1 2 1 1 1 1 1 1 1 1
2 1 1 3 4 5 3 1 3 3 3 3 2 4 10 1 5 6 5 5 4 4 4 3 3 3 1 0 1 1 1 1 1 1 1 2 1 1 1 1 1 1 1 1
2 1 1 2 0 3 2 3 2 2 1 5 6 5 10 5 7 4 3 4 4 3 2 2 1 1 1 1 1 1 1 1 1 1 1 1 1 1 1 1 1 1 1 1
2 1 1 1 1 1 2 3 2 3 2 7 3 5 12 6 4 5 4 4 3 2 2 1 1 1 1 1 1 1 1 1 1 0 0 1 2 2 2 2 2 2 1 2
1 4 2 1 2 3 3 5 5 5 5 5 2 8 9 3 2 3 3 3 2 2 2 2 2 2 1 1 1 0 1 0 0 0 1 1 1 1 2 2 2 2 2 3
4 4 1 0 0 3 3 3 2 3 0 3 6 7 10 2 2 2 2 2 2 3 2 2 2 2 1 1 1 1 1 1 1 1 1 1 1 2 2 2 2 2 2 2
3 3 2 1 1 1 1 4 3 3 3 5 6 6 7 4 4 3 3 3 3 2 2 2 1 1 1 1 0 0 1 1 1 1 1 1 2 2 2 2 2 2 2 2
2 2 2 1 4 5 3 2 3 2 3 4 5 9 6 6 6 5 5 4 3 2 2 2 1 1 0 0 1 0 1 1 2 2 2 2 2 2 2 2 2 2 2 2
2 3 3 5 2 1 3 4 5 4 5 4 4 10 2 3 3 3 3 2 2 2 2 1 1 0 0 0 1 1 1 1 2 2 2 2 2 2 2 2 2 2 2 2
3 4 1 4 2 0 2 2 2 2 2 4 5 11 2 2 3 2 2 3 2 2 2 1 1 1 1 0 1 1 1 2 2 2 2 2 2 2 2 3 2 2 2 2
3 4 6 8 5 3 4 4 4 4 4 6 10 12 10 8 7 5 4 4 3 3 3 2 2 1 1 1 1 1 2 2 2 1 1 2 2 2 3 3 2 2 2 2
3 4 5 6 5 3 6 8 8 10 10 10 11 11 14 10 7 5 4 3 3 4 3 3 3 2 2 1 1 1 2 2 2 1 2 2 2 2 2 2 2 2 2 2
2 3 1 5 4 5 8 11 12 12 11 12 13 16 12 7 3 4 4 4 5 5 4 4 3 3 3 2 2 2 2 2 1 2 2 2 2 2 2 2 2 2 2 2
3 4 2 5 4 4 10 11 13 9 9 9 14 13 5 4 5 5 5 5 5 5 4 4 4 3 3 3 2 3 3 2 1 2 2 2 2 2 2 2 2 2 3 2
6 4 3 1 2 8 9 3 7 9 9 9 9 8 5 5 5 3 3 4 5 4 4 4 3 3 2 2 2 2 2 1 2 2 2 2 2 2 3 2 2 3 2 3
5 6 3 2 4 11 8 3 4 6 8 7 9 9 5 3 4 4 3 3 4 4 3 3 2 2 1 2 2 1 1 1 1 2 2 2 2 3 3 3 3 3 3 3
2 3 4 4 4 9 7 1 1 2 7 4 5 6 3 0 3 5 2 1 2 2 1 1 1 0 1 1 1 1 1 1 2 3 3 3 2 3 3 3 4 3 3 3
4 3 5 6 7 12 6 2 2 4 7 2 3 5 4 5 6 4 2 2 1 1 1 0 0 0 1 1 0 1 1 2 3 3 3 3 2 3 3 3 3 2 3 3
10 8 8 6 7 13 4 5 7 6 2 2 3 4 4 5 4 3 2 2 2 1 1 1 0 1 1 1 0 1 2 3 2 2 2 3 2 2 2 2 2 2 2 2
9 9 8 11 11 4 5 6 4 2 3 4 4 3 3 4 4 3 3 3 2 2 1 1 0 1 2 1 1 2 3 2 2 2 2 3 3 2 2 2 2 2 2 2
5 3 4 6 9 6 6 6 5 4 5 4 3 3 2 3 4 3 3 3 2 2 1 1 1 1 2 2 2 2 3 2 1 2 3 2 2 2 2 2 2 2 2 2
6 5 4 8 8 6 7 8 8 6 4 3 2 2 3 3 4 3 3 3 2 2 1 1 1 2 3 2 2 3 2 1 1 2 2 2 2 2 2 2 2 3 3 4
6 8 9 10 8 7 6 4 4 4 4 4 2 2 2 2 3 3 3 2 2 2 1 1 2 2 3 3 3 3 3 1 1 2 2 2 2 2 2 2 3 5 5 7
Wind_Direction
56 90 202 211 198 191 174 187 235 256 264 245 250 264 271 264 245 249 248 247 251 256 267 276 254 232 89 80 110 132 108 88 103 87 90 176 216 321 1 358 19 24 17 36
65 238 236 193 177 179 190 225 257 281 279 248 276 275 268 244 234 235 234 238 241 255 278 289 283 101 153 164 145 138 141 137 153 166 174 195 204 204 261 344 2 9 7 7
179 235 191 164 178 189 217 214 226 246 315 310 310 295 269 252 235 241 240 235 234 230 238 242 243 228 177 188 195 183 181 169 158 127 92 56 49 42 22 341 327 331 321 338
222 265 184 178 204 189 239 214 204 219 269 288 83 288 282 253 267 248 244 241 241 244 231 217 210 215 212 224 200 149 117 93 91 126 131 136 167 242 249 268 288 314 309 307
229 219 177 210 222 190 216 169 181 209 211 275 241 246 279 274 258 252 240 233 236 235 225 213 206 203 204 178 118 117 100 80 75 119 152 175 217 261 284 314 304 305 312 315
252 253 215 219 237 180 150 82 64 63 111 261 226 206 271 227 223 241 239 231 232 227 222 219 199 140 114 90 85 89 96 63 57 96 129 192 230 281 307 309 290 296 302 292
302 271 292 118 85 75 120 111 37 352 303 251 209 215 250 239 225 217 226 237 232 221 210 211 192 148 134 100 84 98 112 44 14 66 232 243 244 246 250 254 257 282 285 279
211 270 232 192 173 182 197 167 171 206 234 273 244 234 251 238 240 230 228 229 236 231 217 221 218 203 190 172 147 132 143 270 319 282 274 275 258 244 257 256 255 249 257 257
187 249 337 287 297 150 161 199 178 150 230 270 259 272 291 228 250 240 232 222 239 240 233 233 225 205 192 188 199 196 201 260 290 286 292 283 266 256 267 269 264 257 272 280
158 242 280 296 55 37 150 145 117 152 191 253 274 258 247 243 234 240 236 232 238 238 239 234 220 200 192 197 241 236 220 244 279 278 268 277 272 266 267 267 269 271 279 286
148 173 291 306 205 193 143 152 158 163 184 198 264 266 230 217 212 217 231 233 231 228 236 244 244 223 205 77 66 7 336 327 320 305 286 284 284 279 275 270 269 273 280 281
159 141 248 254 261 270 190 188 164 182 228 214 241 268 266 219 231 223 245 252 251 244 254 260 266 277 38 12 4 342 328 314 298 293 289 285 290 292 291 282 277 276 271 270
140 130 18 329 312 343 231 209 190 161 161 195 215 263 309 326 311 285 250 256 254 252 263 270 276 279 273 285 294 296 294 292 301 294 289 293 299 298 293 288 285 277 270 272
131 165 192 216 235 190 226 227 192 171 203 231 233 258 283 290 291 294 278 263 252 243 237 234 243 256 269 293 294 294 297 291 291 285 279 287 290 284 284 288 289 282 277 271
134 209 230 254 269 250 238 235 214 213 217 226 250 253 265 267 265 271 264 263 260 260 254 243 240 243 251 266 280 286 287 288 277 264 266 273 286 290 293 292 292 290 283 276
152 196 232 276 268 264 262 247 233 237 237 244 261 268 265 279 273 257 248 242 249 256 257 255 249 246 250 257 269 279 282 285 277 258 262 276 292 299 295 293 294 297 293 290
174 159 180 262 307 328 266 232 215 220 219 213 237 254 278 289 264 244 240 245 247 253 262 264 256 248 252 256 252 256 263 277 273 266 278 288 290 290 292 299 299 294 291 289
167 157 172 252 23 244 247 206 201 221 239 227 246 266 273 268 284 284 266 251 256 257 263 266 263 261 270 273 266 260 259 264 272 268 270 280 290 288 289 292 291 287 282 277
183 167 160 169 242 274 288 252 193 209 259 231 237 260 280 313 326 291 264 233 244 252 254 255 248 245 252 262 262 251 258 269 283 282 280 278 273 280 285 280 278 279 279 275
142 157 160 170 210 244 254 230 228 150 274 249 218 243 250 200 287 280 279 259 274 286 275 264 268 242 250 273 250 213 248 279 285 285 285 282 275 271 273 273 275 275 273 270
160 176 193 200 230 258 255 226 136 186 255 266 219 233 214 216 238 271 291 292 277 294 311 323 12 309 281 288 258 218 259 278 282 290 292 288 282 274 271 276 273 272 272 274
180 180 194 180 214 251 207 153 194 227 281 265 254 242 231 243 264 278 287 294 305 315 327 1 26 331 333 348 332 279 278 285 298 299 294 292 292 286 284 280 278 273 267 272
204 198 194 198 217 242 185 210 240 247 256 262 263 259 240 254 263 269 280 289 293 285 284 295 259 315 336 348 327 289 296 312 319 310 300 300 304 297 288 275 276 272 259 259
236 221 209 243 257 253 245 255 261 246 247 261 265 254 230 242 252 258 269 282 291 293 282 274 252 280 295 318 320 293 300 319 312 299 301 304 300 301 301 286 275 264 256 256
210 185 217 252 266 283 260 238 243 247 251 262 272 254 235 232 250 251 265 276 280 293 306 287 258 268 285 305 307 306 309 318 296 290 294 297 291 291 296 290 276 273 264 254
195 194 205 239 237 230 255 241 225 229 240 239 242 270 270 247 252 265 271 276 276 282 300 296 285 281 293 301 302 310 309 294 275 287 291 290 289 289 286 294 302 297 296 301